Wind_Speed
34 35 39 40 39 39 42 44 48 48 48 45 44 47 48 48 49 50 50 50 51 52 53 53 54 55 56 56 57 57 58 59 61 63 66 68 70 72 72 72 71 71 70 69
38 37 41 44 41 40 42 45 47 49 49 45 47 49 49 49 49 50 50 51 52 54 54 55 56 57 57 57 57 58 59 60 62 64 66 68 70 71 71 70 70 70 69 68
44 42 45 45 40 41 43 44 45 47 47 47 48 49 49 49 50 51 51 52 54 55 55 56 57 58 58 58 58 59 60 61 62 64 66 68 70 71 70 69 69 68 68 67
47 47 50 45 43 43 44 45 45 46 46 47 48 49 49 50 51 51 52 53 55 56 57 57 58 58 59 58 59 60 61 62 64 65 67 68 69 69 69 68 67 66 66 65
50 52 53 47 44 46 48 48 46 48 48 48 49 50 50 51 52 53 54 56 57 58 58 58 59 59 60 60 60 61 62 63 64 65 67 68 68 68 67 67 66 65 65 64
52 55 56 50 49 50 51 51 50 51 50 51 52 54 53 53 54 55 56 58 59 60 60 60 60 60 60 61 61 62 62 63 64 65 66 67 66 66 66 65 64 63 63 62
55 58 58 52 52 53 53 53 54 54 55 56 57 58 59 59 59 60 60 61 62 62 62 61 61 61 61 61 62 63 63 63 63 64 64 65 64 64 64 63 62 61 61 61
56 59 58 54 55 55 57 58 59 59 59 60 61 61 62 62 62 62 63 64 64 64 63 62 62 62 62 62 62 63 63 63 63 63 62 62 62 62 62 60 60 59 59 59
59 59 58 58 59 59 60 63 63 63 62 62 62 62 62 62 62 62 63 63 63 63 62 62 62 62 62 62 62 62 62 62 62 62 61 60 60 60 59 58 57 57 57 56
59 58 57 58 60 61 62 64 64 64 63 62 62 61 61 61 60 60 60 60 60 60 60 59 59 59 59 60 60 60 60 60 60 59 59 59 57 57 56 56 55 55 54 54
55 53 55 56 58 60 61 61 62 61 61 62 61 60 58 57 56 56 56 56 56 56 55 55 56 56 57 58 58 58 58 58 57 57 56 56 54 54 53 53 52 52 52 51
48 47 51 50 51 52 53 54 55 55 55 54 54 54 53 53 53 53 53 53 53 53 53 53 54 54 54 55 55 55 55 56 56 55 54 53 51 50 50 50 50 50 49 49
44 44 45 44 45 47 47 48 49 49 49 49 50 51 51 51 50 50 51 52 52 52 52 53 53 54 54 54 54 54 54 54 54 53 52 51 48 47 47 47 47 47 47 47
38 39 39 38 39 40 41 42 42 43 44 45 45 46 46 46 46 46 47 48 49 49 50 51 51 52 53 53 53 54 54 52 51 50 49 48 46 44 44 44 44 44 44 44
37 38 38 38 38 38 39 40 41 42 43 44 45 46 46 46 46 46 47 48 48 49 50 50 50 51 51 51 52 52 52 51 49 48 48 46 43 42 41 42 42 42 42 42
38 39 39 40 40 41 42 43 44 45 46 47 47 48 49 49 49 50 51 52 52 51 51 51 51 51 51 51 51 51 50 49 47 47 46 44 41 39 39 40 40 40 39 39
41 41 43 43 44 46 47 48 49 49 49 50 50 50 51 51 52 52 53 54 54 54 55 54 54 53 53 52 51 50 49 48 46 45 43 41 39 37 37 37 38 37 37 37
45 46 47 48 49 50 51 51 52 52 52 52 53 54 55 56 56 56 56 56 56 55 56 56 56 55 54 53 52 50 49 47 46 44 42 39 36 35 35 35 36 35 35 35
48 49 50 51 52 53 53 53 53 53 54 56 57 58 58 59 59 60 60 59 59 59 59 59 59 58 57 56 54 52 49 47 44 42 39 36 34 33 33 33 33 32 32 33
50 51 52 53 54 55 55 55 56 57 58 59 59 59 59 60 61 61 60 60 61 62 61 60 60 59 58 56 54 50 48 45 42 39 36 34 32 31 31 31 31 30 30 30
50 51 52 54 54 55 55 56 58 58 58 58 59 59 59 59 60 60 60 60 61 62 61 60 60 58 56 53 50 47 44 41 38 36 33 31 29 29 28 28 28 27 28 28
50 51 52 53 53 53 54 56 57 57 56 56 57 58 59 59 59 60 61 62 61 60 59 57 56 53 51 48 44 41 38 36 34 32 30 28 27 26 26 26 26 25 26 26
50 51 52 53 53 53 54 55 55 55 55 56 57 58 59 60 61 61 60 59 58 57 55 52 50 48 45 41 39 36 32 30 29 28 27 25 24 24 24 24 23 23 24 24
50 51 51 52 52 52 52 52 52 53 53 54 56 58 60 60 59 59 59 57 55 53 50 47 45 42 38 35 33 30 29 28 27 25 24 23 22 22 21 21 21 21 21 22
50 50 50 50 50 50 50 50 50 51 52 53 55 57 58 58 57 55 55 53 51 49 46 43 39 35 32 30 28 26 25 25 24 23 22 21 20 19 19 19 18 18 19 20
49 49 49 49 49 49 49 49 49 50 51 52 54 55 55 54 54 53 52 49 47 44 40 36 31 28 26 25 24 23 23 22 21 20 20 18 18 17 17 16 16 16 17 19
47 47 47 47 47 48 48 48 49 50 51 53 53 52 52 51 51 49 47 44 41 37 33 29 25 23 21 20 20 20 20 20 20 19 17 17 16 15 15 14 14 14 16 17
Wind_Direction
281 280 279 279 279 280 282 285 286 289 290 294 292 289 290 292 293 295 296 297 298 300 301 303 306 308 310 312 314 316 318 320 322 324 327 330 333 334 336 337 339 341 342 344
280 280 279 280 284 286 285 286 287 288 290 293 291 291 292 293 293 293 294 295 296 298 299 301 304 306 308 311 312 314 316 318 320 322 325 328 331 333 334 336 338 340 342 344
282 280 279 281 287 286 286 287 289 290 291 290 289 290 291 291 291 292 292 293 294 296 298 300 303 305 307 309 310 312 314 316 318 320 323 326 329 332 333 335 337 339 342 344
283 282 281 286 287 289 288 288 290 290 289 289 289 289 290 290 290 290 291 292 293 294 296 299 301 303 305 306 308 309 312 314 316 318 321 324 327 330 331 333 336 338 341 343
283 283 284 288 291 291 290 289 291 291 289 288 287 287 287 288 289 290 291 291 293 294 296 298 300 301 303 304 306 307 309 311 313 316 319 322 325 328 330 331 334 337 340 343
281 283 286 291 292 292 291 291 289 288 288 287 287 286 287 287 288 288 289 290 292 294 295 297 299 300 302 303 304 305 307 309 311 314 317 320 323 326 328 330 332 336 339 342
281 283 285 290 290 290 290 290 288 287 287 287 287 287 288 289 289 289 290 291 292 294 295 297 298 299 301 302 303 304 306 307 310 312 315 318 321 324 326 328 331 334 337 341
282 282 286 288 287 287 287 286 286 286 286 287 287 288 288 289 289 290 290 291 292 294 295 296 297 298 299 300 301 303 304 306 308 310 313 316 319 321 324 326 329 332 336 340
280 282 285 285 285 285 285 285 286 286 287 287 288 289 289 290 291 291 292 292 293 294 295 295 296 297 297 298 299 301 303 304 306 309 311 314 317 320 321 324 327 331 335 339
282 283 284 283 283 283 283 283 285 287 288 289 289 290 290 291 292 292 293 294 294 294 295 295 296 297 297 298 299 300 302 303 305 308 310 312 316 318 319 321 325 329 333 338
284 286 284 281 280 280 280 282 285 286 288 289 290 291 292 293 293 294 294 294 294 295 295 296 296 297 298 299 300 301 303 304 305 307 309 312 314 316 317 319 323 327 332 336
284 285 284 286 285 283 284 285 286 288 290 291 292 294 295 295 295 295 296 296 295 295 296 297 298 298 299 300 301 302 303 304 304 306 309 311 312 314 315 318 321 325 330 335
284 285 287 290 291 291 290 290 290 290 291 292 293 294 295 296 296 297 297 297 297 297 297 298 298 299 299 299 301 303 303 304 304 306 308 310 311 312 313 316 320 324 329 334
284 286 288 290 291 292 292 293 294 294 295 296 297 299 300 300 300 300 301 301 301 300 300 300 300 300 300 300 300 302 303 303 304 305 308 309 309 310 312 314 318 322 327 332
284 285 288 289 291 293 294 295 296 296 296 297 298 298 299 299 300 301 301 302 302 301 301 301 301 301 301 302 302 302 303 302 302 303 306 307 308 308 310 312 315 320 325 331
282 284 285 286 288 291 293 294 295 296 297 296 296 297 298 299 299 300 300 301 301 301 301 300 301 302 302 302 302 302 302 301 301 302 304 305 305 306 307 310 313 318 324 330
281 283 284 286 287 289 290 291 293 294 294 295 295 296 297 298 299 300 300 300 300 300 299 299 298 299 299 300 300 301 301 300 299 300 301 302 302 303 305 308 311 316 322 328
281 282 283 284 286 288 289 291 292 294 295 295 296 297 298 298 299 299 299 299 299 299 298 297 297 296 297 298 298 298 298 298 298 298 299 300 299 300 303 306 309 314 321 327
280 281 283 284 286 288 289 291 292 293 295 296 298 299 300 300 300 300 300 299 298 297 296 295 295 295 294 294 294 294 294 294 294 295 296 295 295 297 300 303 307 313 319 326
281 282 284 285 287 288 290 291 292 294 296 298 299 301 301 301 301 301 301 300 299 298 296 295 294 293 292 291 291 290 289 290 291 291 292 291 290 293 297 301 305 311 318 325
283 284 285 286 288 290 291 293 294 296 299 300 301 302 303 304 303 303 303 302 301 300 298 296 293 291 289 288 287 287 286 285 286 286 286 286 286 290 294 297 302 309 317 324
284 285 286 287 289 290 292 294 296 298 300 301 302 303 305 305 306 306 307 306 305 303 301 298 294 291 288 286 284 283 282 281 281 280 280 280 282 286 290 294 300 308 316 323
286 287 287 288 289 291 293 296 298 300 301 302 304 305 307 308 309 309 308 308 307 306 304 301 296 291 287 283 279 276 274 274 274 275 274 274 277 282 287 291 298 307 316 323
288 289 289 290 291 293 295 298 299 301 303 304 306 308 309 310 309 309 309 309 308 307 305 303 300 294 286 280 274 268 265 265 267 268 267 269 272 277 283 289 296 306 315 323
289 290 291 292 294 295 297 299 300 302 304 306 308 309 310 310 311 311 311 310 310 309 307 304 298 293 285 277 269 262 258 258 258 258 259 261 266 273 279 286 295 306 315 324
290 291 292 294 296 297 299 300 302 304 306 307 309 310 311 311 312 313 313 313 312 310 309 305 298 293 287 275 263 254 251 248 247 249 251 254 261 268 276 285 295 306 316 325
291 292 293 294 296 298 300 302 304 306 307 309 310 311 311 312 313 313 313 314 314 313 311 307 299 293 285 271 258 247 241 238 239 241 244 248 256 264 273 283 295 307 318 328
Height
5804 5802 5797 5795 5794 5792 5788 5784 5779 5776 5773 5773 5769 5762 5757 5753 5748 5744 5739 5734 5728 5722 5716 5709 5702 5695 5687 5680 5671 5663 5654 5644 5634 5623 5611 5599 5586 5572 5558 5543 5528 5513 5497 5480
5795 5793 5787 5784 5786 5783 5779 5775 5770 5765 5763 5763 5755 5750 5745 5741 5737 5733 5728 5722 5716 5710 5704 5698 5691 5684 5677 5669 5661 5652 5643 5634 5624 5613 5602 5590 5577 5564 5550 5536 5521 5506 5491 5475
5782 5782 5777 5776 5779 5773 5769 5765 5760 5755 5753 5748 5744 5739 5734 5730 5725 5720 5715 5710 5704 5698 5692 5686 5680 5673 5666 5658 5650 5641 5633 5623 5613 5603 5592 5580 5569 5556 5542 5528 5514 5499 5485 5469
5769 5768 5764 5771 5766 5762 5757 5756 5750 5743 5739 5735 5731 5727 5722 5717 5712 5707 5702 5697 5692 5686 5680 5674 5668 5661 5654 5647 5638 5630 5621 5612 5603 5593 5582 5571 5560 5548 5535 5521 5508 5494 5479 5464
5758 5753 5751 5757 5756 5749 5744 5743 5739 5730 5726 5722 5717 5714 5711 5705 5699 5694 5689 5684 5678 5673 5668 5662 5655 5648 5642 5634 5626 5618 5609 5601 5591 5582 5572 5561 5551 5539 5527 5514 5501 5488 5474 5460
5746 5740 5738 5747 5742 5735 5730 5728 5724 5716 5712 5707 5703 5700 5698 5693 5687 5681 5676 5671 5665 5660 5655 5649 5642 5635 5628 5621 5613 5605 5597 5589 5580 5571 5561 5552 5542 5531 5519 5507 5494 5482 5469 5455
5733 5726 5726 5734 5728 5721 5716 5713 5706 5702 5697 5692 5688 5684 5681 5677 5672 5667 5662 5656 5651 5645 5640 5635 5628 5621 5614 5607 5600 5592 5585 5577 5568 5560 5551 5542 5532 5522 5511 5499 5488 5476 5463 5451
5719 5713 5716 5718 5711 5708 5701 5695 5690 5686 5683 5677 5673 5669 5665 5661 5657 5652 5646 5641 5635 5630 5626 5620 5613 5606 5600 5593 5586 5578 5571 5564 5556 5548 5540 5532 5523 5513 5503 5492 5481 5469 5457 5444
5704 5703 5703 5699 5695 5691 5685 5679 5674 5670 5668 5663 5657 5654 5650 5645 5641 5636 5631 5625 5620 5614 5610 5605 5599 5592 5586 5579 5572 5565 5558 5551 5544 5537 5529 5521 5513 5504 5495 5485 5474 5463 5452 5439
5688 5688 5688 5684 5678 5674 5668 5661 5657 5654 5651 5647 5641 5638 5634 5630 5626 5621 5616 5610 5605 5599 5595 5590 5583 5577 5571 5565 5558 5552 5546 5539 5532 5525 5518 5511 5503 5495 5487 5477 5467 5457 5446 5435
5672 5673 5669 5666 5661 5656 5651 5647 5643 5639 5635 5630 5625 5622 5618 5614 5610 5605 5600 5595 5589 5584 5579 5574 5569 5563 5557 5550 5544 5538 5532 5526 5520 5514 5507 5501 5494 5486 5478 5470 5461 5451 5441 5430
5656 5656 5650 5647 5644 5640 5635 5632 5628 5624 5621 5617 5611 5607 5604 5600 5595 5590 5586 5581 5575 5570 5565 5560 5555 5549 5543 5537 5531 5525 5520 5514 5508 5502 5497 5490 5484 5477 5470 5462 5454 5445 5435 5425
5644 5641 5636 5634 5630 5626 5622 5618 5615 5611 5607 5603 5599 5594 5590 5586 5582 5577 5572 5567 5561 5557 5552 5546 5541 5536 5530 5524 5518 5513 5507 5502 5496 5491 5485 5480 5474 5468 5462 5455 5447 5439 5430 5420
5633 5629 5626 5623 5619 5615 5611 5607 5603 5599 5595 5590 5586 5582 5577 5573 5569 5564 5559 5554 5548 5543 5538 5533 5528 5522 5516 5511 5506 5500 5495 5489 5484 5479 5475 5470 5465 5459 5454 5447 5440 5432 5424 5415
5622 5619 5616 5612 5609 5605 5601 5597 5593 5589 5584 5580 5575 5570 5566 5562 5557 5552 5547 5542 5537 5531 5526 5520 5515 5510 5504 5498 5493 5488 5482 5477 5473 5468 5464 5460 5455 5450 5445 5440 5433 5426 5418 5410
5612 5608 5605 5602 5598 5594 5590 5586 5582 5578 5573 5569 5564 5560 5555 5550 5545 5540 5534 5529 5524 5518 5513 5507 5502 5496 5491 5485 5480 5475 5470 5465 5461 5457 5454 5450 5446 5441 5437 5432 5426 5419 5412 5405
5600 5597 5594 5590 5587 5583 5578 5574 5570 5566 5561 5557 5552 5547 5542 5537 5532 5527 5521 5515 5509 5504 5497 5492 5487 5482 5477 5472 5467 5462 5458 5454 5450 5447 5443 5440 5437 5433 5429 5424 5419 5413 5406 5399
5588 5584 5581 5578 5574 5570 5566 5561 5557 5552 5548 5543 5539 5534 5529 5523 5518 5512 5507 5500 5494 5488 5481 5475 5470 5466 5461 5457 5453 5449 5445 5442 5439 5436 5433 5430 5428 5424 5421 5417 5412 5406 5400 5394
5574 5571 5568 5564 5560 5556 5552 5547 5543 5539 5534 5529 5524 5519 5513 5507 5501 5495 5489 5483 5476 5471 5465 5458 5453 5448 5444 5440 5437 5434 5431 5429 5426 5424 5422 5421 5418 5416 5413 5409 5405 5400 5395 5388
5560 5557 5553 5550 5545 5541 5538 5533 5529 5525 5520 5514 5509 5503 5498 5491 5484 5477 5471 5465 5457 5449 5445 5439 5433 5428 5424 5422 5420 5418 5416 5415 5414 5413 5412 5411 5409 5407 5405 5402 5398 5394 5389 5383
5546 5543 5539 5536 5532 5528 5523 5519 5514 5510 5505 5499 5493 5487 5481 5475 5467 5460 5453 5447 5440 5430 5424 5418 5413 5409 5405 5403 5402 5402 5401 5401 5401 5401 5401 5401 5400 5399 5397 5395 5392 5388 5383 5378
5532 5529 5525 5522 5518 5515 5510 5505 5500 5495 5490 5484 5478 5471 5465 5459 5451 5444 5435 5427 5420 5412 5404 5398 5392 5389 5386 5386 5385 5386 5387 5388 5389 5390 5391 5391 5392 5391 5390 5388 5385 5382 5378 5373
5518 5514 5511 5507 5504 5501 5497 5491 5486 5480 5475 5469 5463 5456 5449 5442 5434 5426 5419 5411 5401 5393 5386 5379 5374 5370 5369 5369 5370 5371 5373 5376 5378 5380 5381 5382 5383 5383 5383 5381 5379 5376 5372 5368
5503 5500 5496 5493 5489 5486 5482 5478 5472 5466 5461 5455 5448 5440 5433 5426 5419 5410 5401 5393 5385 5377 5371 5365 5360 5356 5355 5355 5357 5359 5362 5364 5367 5370 5372 5374 5375 5376 5376 5375 5373 5370 5367 5363
5488 5485 5482 5479 5475 5472 5468 5464 5459 5454 5448 5442 5435 5426 5418 5410 5403 5395 5387 5379 5371 5363 5357 5352 5348 5345 5344 5344 5346 5348 5351 5354 5358 5361 5364 5366 5368 5369 5369 5368 5367 5365 5362 5359
5474 5471 5468 5465 5461 5458 5454 5450 5446 5441 5435 5429 5422 5414 5405 5397 5389 5381 5373 5366 5358 5351 5346 5341 5337 5335 5335 5335 5337 5339 5343 5346 5350 5354 5357 5360 5362 5363 5363 5363 5362 5360 5358 5354
5460 5457 5454 5452 5448 5444 5440 5436 5432 5427 5420 5414 5408 5401 5393 5385 5377 5369 5362 5355 5348 5343 5338 5334 5331 5329 5328 5329 5330 5332 5336 5339 5343 5347 5351 5354 5356 5357 5358 5358 5357 5355 5353 5350